AO-07 1 07530U 74089B 20261.88773892 -.00000051 00000-0 -34603-4 0 9994 2 07530 101.8106 231.1455 0012014 184.5385 230.1732 12.53645097097575 UO-11 1 14781U 84021B 20261.78266939 .00000051 00000-0 12322-4 0 9997 2 14781 097.5911 269.1652 0006957 255.5052 104.5391 14.83191662945515 LO-19 1 20442U 90005G 20261.82167630 -.00000007 00000-0 13823-4 0 9999 2 20442 098.6995 209.4163 0010704 240.8702 119.1410 14.32960632601785 HUBBLE 1 20580U 90037B 20261.86890771 .00000381 00000-0 12185-4 0 9994 2 20580 028.4700 068.4011 0002743 009.9346 117.4149 15.09431894469948 MET-2/21 1 22782U 93055A 20261.85692904 .00000026 00000-0 10403-4 0 9997 2 22782 082.5515 160.2674 0022134 339.4285 090.6904 13.83830436365822 AO-27 1 22825U 93061C 20261.58694612 -.00000014 00000-0 12490-4 0 9996 2 22825 098.9264 266.3688 0009468 106.9638 253.2582 14.30092632406982 IO-26 1 22826U 93061D 20261.62169759 -.00000011 00000-0 13741-4 0 9998 2 22826 098.9205 266.3411 0010049 096.2513 263.9814 14.30429026407227 FO-29 1 24278U 96046B 20261.82006777 -.00000029 00000-0 44456-5 0 9996 2 24278 098.5888 359.5841 0351128 135.5934 227.3938 13.53099876189379 NOAA-15 1 25338U 98030A 20261.77375240 .00000027 00000-0 29922-4 0 9994 2 25338 098.7124 286.3318 0010289 000.8100 359.3094 14.25989808162134 GO-32 1 25397U 98043D 20261.86320686 -.00000021 00000-0 10263-4 0 9990 2 25397 098.7337 202.6820 0002023 122.0545 238.0830 14.23690412152702 ISS 1 25544U 98067A 20261.85362013 .00000067 00000-0 93590-5 0 9993 2 25544 51.6432 249.9052 0000854 101.7039 328.6599 15.48950860246383 NO-44 1 26931U 01043C 20261.73325546 -.00000035 00000-0 18239-4 0 9991 2 26931 067.0493 264.2545 0006543 275.9781 084.0574 14.30587463990273 SO-50 1 27607U 02058C 20261.87452180 -.00000024 00000-0 16942-4 0 9996 2 27607 064.5544 091.7974 0036861 146.3604 213.9849 14.75659040954361 CO-55 1 27844U 03031E 20261.87340049 .00000040 00000-0 37809-4 0 9993 2 27844 098.6834 268.2166 0010507 142.5957 217.5954 14.22256217893232 CO-57 1 27848U 03031J 20261.85658692 .00000026 00000-0 31623-4 0 9993 2 27848 098.6899 268.7641 0010188 154.5556 205.6125 14.21840863893078 RS-22 1 27939U 03042A 20261.88308906 -.00000029 00000-0 35107-5 0 9995 2 27939 098.1036 035.5415 0014204 064.6291 295.6379 14.66885468907565 NOAA-18 1 28654U 05018A 20261.88504546 .00000098 00000-0 77807-4 0 9990 2 28654 099.0350 319.1377 0013656 334.4785 025.5711 14.12539873789962 CO-58 1 28895U 05043F 20261.83248336 .00000081 00000-0 24398-4 0 9991 2 28895 098.0228 035.6672 0016510 354.3856 005.7159 14.63799106794125 Falconsat-3 1 30776U 07006E 20261.79491926 .00002449 00000-0 64893-4 0 9997 2 30776 035.4349 049.0587 0003460 298.1347 061.9030 15.38188931751068 CO-65 1 32785U 08021C 20261.76413581 .00000152 00000-0 21912-4 0 9999 2 32785 097.5809 245.7570 0012845 180.3691 179.7519 14.88514338671607 AAUSAT2 1 32788U 08021F 20261.81129872 .00000642 00000-0 63351-4 0 9992 2 32788 097.4943 262.2195 0013319 104.0302 256.2401 14.95144837673114 DO-64 1 32789U 08021G 20261.84382813 .00000907 00000-0 62931-4 0 9999 2 32789 097.4112 301.3873 0011937 007.4143 352.7259 15.07925631675730 CO-66 1 32791U 08021J 20261.53799120 .00000281 00000-0 33676-4 0 9990 2 32791 097.5472 251.6513 0013947 149.7961 210.4064 14.91109309672102 RS-30 1 32953U 08025A 20261.79188778 .00000037 00000-0 19437-3 0 9990 2 32953 82.5033 220.4760 0018169 210.0392 149.9649 12.43098166559100 PRISM 1 33493U 09002B 20261.82351605 -.00000147 00000-0 -71652-5 0 9994 2 33493 098.1502 205.9788 0016194 106.6237 253.6763 14.97134532633524 NOAA-19 1 33591U 09005A 20261.96636339 -.00000178 00000-0 -71263-4 0 9992 2 33591 99.1951 269.7240 0014471 172.4575 187.6781 14.12430318598451 TISAT-1 1 36799U 10035E 20261.55473213 .00000303 00000-0 36500-4 0 9998 2 36799 98.2017 75.4110 0012949 33.7273 326.4766 14.91422477552851 JUGNU 1 37839U 11058B 20261.19736115 .00000309 00000-0 23172-4 0 9990 2 37839 019.9615 086.3881 0018910 319.8496 203.1142 14.12688319461777 SRMSAT 1 37841U 11058D 20261.88678360 .00000337 00000-0 40118-4 0 9996 2 37841 019.9713 148.4497 0011907 178.9559 264.5933 14.10671049461235 AO-71 1 37854U 11061E 20261.62864078 .00001552 00000-0 84711-4 0 9996 2 37854 101.7094 40.4793 0157844 147.6165 213.4855 15.07504340485810 HRBE 1 37855U 11061F 20261.63410512 .00001413 00000-0 76634-4 0 9999 2 37855 101.7217 37.5987 0170485 161.2672 199.4919 15.06523145485559 HORYU-2 1 38340U 12025D 20261.75338143 .00000112 00000-0 24223-4 0 9994 2 38340 98.2720 317.4847 0012770 105.6014 254.6605 14.75888797448576 RS-40 1 38735U 12041C 20261.80303415 -.00000001 00000-0 -77293-4 0 9994 2 38735 82.4766 303.0862 0016196 323.9110 36.0875 12.42580321369325 BEESAT-3 1 39135U 13015F 20261.65680254 .00001083 00000-0 61647-4 0 9998 2 39135 64.8687 3.6000 0033240 228.3886 131.4392 15.18351248409600 BEESAT-2 1 39136U 13015G 20261.60959931 .00000845 00000-0 51060-4 0 9998 2 39136 64.8751 9.0536 0034958 269.6032 90.1089 15.17739395409498 ZACUBE-1 1 39417U 13066B 20261.50305847 .00000182 00000-0 29147-4 0 9991 2 39417 097.5705 254.4272 0058249 337.5471 022.3194 14.81318131368664 TRITON-1 1 39427U 13066M 20261.83513666 .00000148 00000-0 31330-4 0 9997 2 39427 097.7349 217.6794 0114445 141.9871 218.9481 14.68043214365215 GOMX-1 1 39430U 13066Q 20261.81448798 .00000096 00000-0 26890-4 0 9999 2 39430 97.7926 194.7770 0149475 253.6535 104.8187 14.59435979363271 LO-74 1 39440U 13066AA 20261.88831259 .00000193 00000-0 33556-4 0 9990 2 39440 097.6400 239.3230 0081150 040.9103 319.8159 14.76052153366210 AO-73 1 39444U 13066AE 20261.78513560 .00000222 00000-0 33553-4 0 9995 2 39444 097.5641 256.9729 0057123 328.2958 031.4820 14.82180423367044 SPROUT 1 39770U 14029E 20261.89099760 .00000656 00000-0 77761-4 0 9990 2 39770 097.9020 007.8084 0009523 030.9341 329.2425 14.87857088342801 DUCHIFAT-1 1 40021U 14033M 20261.76117131 .00000441 00000-0 50488-4 0 9994 2 40021 97.9442 193.5749 0012722 350.0242 10.0722 14.90973266339646 NANOSATCBR1 1 40024U 14033Q 20261.76866173 .00000246 00000-0 31362-4 0 9997 2 40024 97.9275 189.6578 0012136 355.2186 4.8914 14.90132692339501 DTUSAT-2 1 40030U 14033W 20261.76766897 .00000156 00000-0 22725-4 0 9999 2 40030 97.9008 183.3248 0011902 359.2836 0.8362 14.88759066339255 EO-80 1 40032U 14033Y 20261.45360711 .00000202 00000-0 27673-4 0 9991 2 40032 097.9015 183.0144 0011900 001.1819 358.9423 14.88709739338671 ANTELSAT 1 40034U 14033AA 20261.57071068 .00000153 00000-0 29758-4 0 9991 2 40034 097.7042 112.8039 0059978 061.6394 299.0845 14.74296673335459 VELOX-1 1 40057U 14034E 20261.84938215 .00000241 00000-0 41087-4 0 9990 2 40057 98.2928 41.4162 0010244 203.9190 156.1544 14.77924997335285 DAURIA DX 1 1 40071U 14037C 20261.78357760 .00000060 00000-0 15300-4 0 9990 2 40071 98.4637 85.3132 0007940 193.5316 166.5687 14.81390474334922 HODOYOSHI-1 1 40299U 14070B 20261.77711053 .00000442 00000-0 20996-4 0 9998 2 40299 97.3168 336.3476 0011595 225.6071 283.2321 15.24166022325871 CHUBUSAT-1 1 40300U 14070C 20261.82336715 .00000374 00000-0 18969-4 0 9996 2 40300 97.2799 328.1895 0018242 247.1725 249.6815 15.22615378325569 QSAT-EOS 1 40301U 14070D 20261.79234080 .00001341 00000-0 52660-4 0 9996 2 40301 97.2865 334.1089 0023671 218.3263 284.9607 15.27200509326029 FIREBIRD FU3 1 40377U 15003B 20261.80602978 .00001188 00000-0 48977-4 0 9998 2 40377 099.0882 340.8868 0122891 006.1245 354.1453 15.20397569311330 FIREBIRD FU4 1 40378U 15003C 20261.78923877 .00001236 00000-0 50721-4 0 9994 2 40378 099.0885 340.9717 0123055 006.0411 354.2269 15.20416148311336 GRIFEX 1 40379U 15003D 20261.78728408 .00001104 00000-0 49714-4 0 9992 2 40379 99.0940 332.3401 0132707 32.7639 328.1731 15.16654719310848 NO-84 1 40654U 15025D 20260.52080124 .00014589 00000-0 15900-3 0 338 2 40654 54.9827 240.3061 0115407 65.6038 295.7054 15.55866877183190 DEORBITSAIL 1 40719U 15032E 20261.76889864 .00000295 00000-0 48879-4 0 9995 2 40719 097.8571 148.0811 0014875 271.1197 088.8309 14.77066939279721 NUDT-PHONESAT 1 40900U 15049B 20261.82658741 .00001840 00000-0 77798-4 0 9999 2 40900 97.4308 271.9953 0013379 26.8068 98.0634 15.24437881277262 XW-2A 1 40903U 15049E 20261.78249220 .00001754 00000-0 41130-4 0 9990 2 40903 97.2791 310.7694 0011282 292.1450 203.6991 15.43411473280711 XW-2C 1 40906U 15049H 20261.78446935 .00000457 00000-0 27088-4 0 9990 2 40906 97.4799 261.7898 0016225 57.0418 67.9386 15.16171853276246 XW-2D 1 40907U 15049J 20261.82900757 .00000407 00000-0 24349-4 0 9995 2 40907 97.4784 261.5562 0015558 54.0602 67.4655 15.16416489276271 LILACSAT-2 1 40908U 15049K 20261.77511837 .00000037 00000-0 56220-5 0 9990 2 40908 97.4949 259.7286 0017498 64.6179 60.1071 15.14099666275967 XW-2E 1 40909U 15049L 20261.80493376 .00000969 00000-0 50073-4 0 9995 2 40909 97.4651 265.1612 0014732 45.7263 79.5372 15.18594658276542 XW-2F 1 40910U 15049M 20261.90631120 .00000798 00000-0 42368-4 0 9997 2 40910 97.4706 264.3446 0015821 43.7729 22.1741 15.18101677276365 XW-2B 1 40911U 15049N 20261.81790716 .00000555 00000-0 31999-4 0 9994 2 40911 97.4798 262.2440 0015587 54.7956 68.8292 15.16341768276162 DCBB 1 40912U 15049P 20261.83095113 .00000961 00000-0 47009-4 0 9996 2 40912 97.4492 268.5059 0015539 22.4352 101.1021 15.20517963276751 TW-1C 1 40926U 15051B 20261.79911535 .00027945 00000-0 23472-3 0 9992 2 40926 97.0746 314.3674 0007287 100.1630 324.4860 15.69840404281491 TW-1A 1 40928U 15051D 20261.84000491 .00002476 00000-0 57857-4 0 9997 2 40928 97.1050 287.4185 0009391 200.5307 332.5133 15.43072399279619 IO-86 1 40931U 15052B 20261.74629660 .00000677 00000-0 52444-5 0 9995 2 40931 5.9983 37.2462 0012919 143.0474 217.0496 14.76642493268924 LQSat 1 40958U 15057A 20261.76650299 .00000013 00000-0 95894-5 0 9993 2 40958 097.8442 322.0934 0017426 209.3697 150.6533 14.73130006266104 ATHENOXAT-1 1 41168U 15077C 20261.24543637 .00001697 00000-0 52741-4 0 9991 2 41168 14.9880 107.8472 0011353 326.0560 33.9034 15.14549991263287 ChubuSat-2 1 41338U 16012B 20261.91310012 .00000278 00000-0 14808-4 0 9999 2 41338 031.0030 118.6823 0013852 312.1220 047.8238 15.00328518251639 ChubuSat-3 1 41339U 16012C 20261.76466307 .00000221 00000-0 10314-4 0 9998 2 41339 31.0116 117.1559 0013698 318.8247 41.1366 15.00489675251614 Horyu-4 1 41340U 16012D 20261.83510945 .00000401 00000-0 23594-4 0 9990 2 41340 031.0050 103.4435 0013936 344.8594 015.1623 15.01555555251779 OUFTI-1 1 41458U 16025C 20261.84362650 .00000789 00000-0 43668-4 0 9996 2 41458 098.1133 017.3624 0161409 258.4606 099.8461 15.07085913241399 e-st@r-II 1 41459U 16025D 20261.85017793 .00001393 00000-0 74071-4 0 9997 2 41459 98.1121 16.7053 0162819 260.6612 97.6161 15.06636145241351 AAUSAT4 1 41460U 16025E 20261.77700790 .00001654 00000-0 84269-4 0 9996 2 41460 98.1081 19.2949 0151722 248.5319 109.9649 15.09029997241565 LO-87 1 41557U 16033B 20261.84019120 .00001052 00000-0 40862-4 0 9993 2 41557 097.4026 351.4708 0014978 118.1381 242.1374 15.28215456239884 NuSat2 1 41558U 16033C 20261.81598794 .00001175 00000-0 42711-4 0 9991 2 41558 097.4090 354.1008 0014035 114.6731 245.5973 15.30221688240019 Lapan A3 1 41603U 16040E 20261.92352958 .00000053 00000-0 55788-5 0 9995 2 41603 097.3001 312.5242 0011835 235.1206 298.1681 15.19870114235183 Swayam 1 41607U 16040J 20261.82410417 .00001137 00000-0 49100-4 0 9997 2 41607 097.3089 318.9840 0012035 214.7332 145.3121 15.24468702235491 Pratham 1 41783U 16059A 20261.73125631 .00000036 00000-0 16020-4 0 9995 2 41783 098.0075 314.5517 0034110 027.8466 332.4553 14.63073411212372 AlSat 1N 1 41789U 16059G 20261.80560244 .00000045 00000-0 17427-4 0 9994 2 41789 98.0115 317.6581 0028634 15.1870 345.0176 14.64341684212542 ScatSat 1 41790U 16059H 20261.80655172 -.00000006 00000-0 92066-5 0 9992 2 41790 98.1533 299.3075 0006167 10.9011 349.2310 14.50927784210618 TY-1 1 41844U 16066D 20261.83268782 .00000783 00000-0 34178-4 0 9990 2 41844 97.4040 268.9748 0015741 25.0330 99.5032 15.24988556214347 Pegasus-1 1 41846U 16066F 20261.63612601 .00000139 00000-0 32285-4 0 9995 2 41846 098.6529 312.6123 0365866 318.8067 038.6025 14.37816685202219 CAS-2T 1 41847U 16066G 20261.88324321 .00000017 00000-0 13781-4 0 9997 2 41847 098.6449 313.2834 0364775 313.6095 043.5350 14.38090704202706 EO-88 1 42017U 17008BX 20261.77343195 .00001188 00000-0 47920-4 0 9994 2 42017 097.3523 327.9628 0006195 012.2622 347.8767 15.26733470199636 CAS-4B 1 42759U 17034B 20261.83572223 -.00000010 00000-0 12829-4 0 9993 2 42759 43.0183 239.4570 0011358 258.6405 175.4404 15.09881344179933 CAS-4A 1 42761U 17034D 20261.84165411 .00000011 00000-0 14094-4 0 9990 2 42761 43.0184 238.6638 0011835 259.3174 176.4106 15.09960480179933 UCLSat 1 42765U 17036A 20261.82546168 .00000962 00000-0 42853-4 0 9995 2 42765 097.2919 313.5496 0012774 065.0314 295.2249 15.23712102180640 NIUSat 1 42766U 17036B 20261.72207771 .00000709 00000-0 34066-4 0 9995 2 42766 097.2915 310.6652 0016830 059.6366 300.6531 15.21865549179726 LituanicaSAT 2 1 42768U 17036D 20261.63445410 .00001678 00000-0 71153-4 0 9995 2 42768 97.2980 313.4902 0015862 55.5736 304.6998 15.24386941179884 Aalto 1 1 42775U 17036L 20261.83068733 .00000600 00000-0 29192-4 0 9994 2 42775 097.2893 311.1063 0015233 058.9548 301.3182 15.21965449179723 URSA MAIOR 1 42776U 17036M 20261.74285002 .00000660 00000-0 31680-4 0 9996 2 42776 097.2906 311.3464 0015036 059.0007 301.2704 15.22158746179723 Max Valier Sat 1 42778U 17036P 20261.73824437 .00000711 00000-0 33312-4 0 9999 2 42778 097.2962 312.7836 0013648 062.3043 297.9577 15.22764839179779 Pegasus 1 42784U 17036V 20261.73844025 .00000898 00000-0 40555-4 0 9994 2 42784 097.2924 313.1170 0013354 066.1324 294.1312 15.23391670179820 NUDATSat 1 42787U 17036Y 20261.91053045 .00001505 00000-0 63421-4 0 9994 2 42787 097.2964 314.9006 0012917 057.4071 302.8411 15.24792777179786 SUCHAI 1 1 42788U 17036Z 20261.85974989 .00001055 00000-0 46365-4 0 9995 2 42788 097.2933 313.9113 0012849 064.2163 296.0399 15.23975508179955 SKCUBE 1 42789U 17036AA 20261.71881963 .00000987 00000-0 43800-4 0 9994 2 42789 097.2927 313.5975 0012757 065.0953 295.1609 15.23802327179845 VZLUSAT 1 1 42790U 17036AB 20261.83485195 .00001336 00000-0 56624-4 0 9993 2 42790 097.2954 314.8203 0012189 062.5668 297.6808 15.24771832179923 VENTA 1 1 42791U 17036AC 20261.82548048 .00000965 00000-0 42914-4 0 9994 2 42791 097.2925 313.7380 0012420 065.3019 294.9510 15.23775399179858 Robusta 1B 1 42792U 17036AD 20261.72658271 .00001044 00000-0 45903-4 0 9994 2 42792 097.2929 313.8858 0012335 065.4337 294.8184 15.24002052179871 D-SAT 1 42794U 17036AF 20261.76840902 .00000252 00000-0 26918-4 0 9999 2 42794 097.4877 289.8243 0127406 057.2856 304.0571 14.91319237176452 TechnoSat 1 42829U 17042E 20261.62023112 .00000186 00000-0 24067-4 0 9995 2 42829 97.5054 139.0045 0013791 343.9289 16.1490 14.91131002173024 QIKCOM-1 1 42983U 98067NF 20261.82656316 .00003607 00000-0 46038-4 0 9995 2 42983 051.6382 199.6291 0004191 053.7029 306.4351 15.62253182164728 AO-91 1 43017U 17073E 20261.80736220 .00000354 00000-0 32354-4 0 9995 2 43017 097.7158 170.4604 0258075 109.3004 253.6311 14.79014834152819 EcAMSat 1 43019U 98067NG 20261.85812238 .00007985 00000-0 76656-4 0 9998 2 43019 051.6407 181.9285 0003967 051.1434 308.9916 15.67665327247286 PICSAT 1 43132U 18004X 20261.27159404 .00001086 00000-0 46868-4 0 9990 2 43132 97.4405 332.0275 0011206 91.3766 268.8755 15.24620624149049 AO-92 1 43137U 18004AC 20261.72280268 .00000803 00000-0 35794-4 0 9990 2 43137 097.4389 332.2329 0010822 091.8498 268.3979 15.24281912149100 TianYi 2 1 43155U 18008A 20261.81299519 .00000279 00000-0 20045-4 0 9993 2 43155 97.4392 328.5200 0017279 184.2677 242.8644 15.11741983146871 Zhou Enlai 1 43156U 18008B 20261.81748376 .00000655 00000-0 42547-4 0 9993 2 43156 97.4445 328.3654 0014301 182.5523 314.8875 15.11301735146824 TianYi 6 1 43158U 18008D 20261.79809903 .00000861 00000-0 55473-4 0 9997 2 43158 97.4391 327.2898 0013492 181.4200 317.7131 15.10831494146763 S-Net D 1 43186U 18014G 20261.63383029 .00000603 00000-0 57629-4 0 9993 2 43186 097.6864 167.9416 0009217 277.8925 082.1250 14.96850698143481 S-Net B 1 43187U 18014H 20261.63367012 .00000603 00000-0 57592-4 0 9997 2 43187 097.6860 167.9170 0009216 277.8541 082.1634 14.96850322143488 S-Net A 1 43188U 18014J 20261.49985228 .00000623 00000-0 59365-4 0 9999 2 43188 097.6865 167.8189 0009216 278.4502 081.5675 14.96849923143468 S-Net C 1 43189U 18014K 20261.63400953 .00000586 00000-0 56114-4 0 9990 2 43189 097.6861 167.9123 0009222 277.8841 082.1334 14.96849598142039 FMN 1 1 43192U 18015A 20261.81124281 .00001941 00000-0 78267-4 0 9991 2 43192 97.4541 30.9345 0016921 120.7947 22.2477 15.25932820145982 Shaonian Xing 1 43199U 18015H 20261.79717541 .00001444 00000-0 58795-4 0 9994 2 43199 97.4326 28.9475 0017743 129.5278 11.0767 15.26005515146047 UBAKUSAT 1 43467U 98067NQ 20261.81603182 .00036467 00000-0 18515-3 0 9993 2 43467 051.6339 164.6512 0002254 111.2250 248.8993 15.81109988134699 EnduroSat One 1 43551U 98067NZ 20261.60491621 .00160433 21389-4 38096-3 0 9991 2 43551 51.6275 156.2706 0004135 152.8256 207.2969 15.96357953125012 EQUISat 1 43552U 98067PA 20261.82153506 .00037591 00000-0 20029-3 0 9991 2 43552 051.6306 172.2867 0005171 105.9303 254.2268 15.80026395124780 UiTMSat 1 1 43589U 98067PD 20261.73940418 .00070390 00000-0 28341-3 0 9996 2 43589 51.6320 167.7678 0004777 128.1930 231.9504 15.85736917120570 Maya 1 1 43590U 98067PE 20261.03838852 .00071195 00000-0 28742-3 0 9998 2 43590 51.6271 171.2826 0004644 123.3651 236.7798 15.85677802120397 Bhutan 1 1 43591U 98067PF 20261.12476817 .00073073 00000-0 29047-3 0 9994 2 43591 51.6332 170.5008 0004930 126.8787 233.2670 15.85986168120418 SiriusSat 1 1 43595U 98067PG 20261.81927173 .00046625 00000-0 23232-3 0 9993 2 43595 051.6267 174.3193 0003369 110.8948 249.2415 15.81398959119607 SiriusSat 2 1 43596U 98067PH 20261.82410411 .00046735 00000-0 23414-3 0 9991 2 43596 051.6263 175.1755 0003453 108.5825 251.5552 15.81279365119594 SurfSat 1 43614U 18070B 20261.77958534 .00002741 00000-0 69616-4 0 9999 2 43614 093.0278 192.7947 0014392 352.0330 008.0694 15.39621718112681 CP-7 DAVE 1 43615U 18070C 20261.82037093 .00002490 00000-0 63615-4 0 9998 2 43615 093.0281 192.7963 0014531 351.2849 008.8151 15.39452102112680 ELFIN-B 1 43616U 18070D 20261.83963868 .00003831 00000-0 92880-4 0 9994 2 43616 093.0240 192.7794 0014844 352.3215 007.7811 15.41005578112746 ELFIN-A 1 43617U 18070E 20261.79571616 .00004105 00000-0 98817-4 0 9997 2 43617 093.0293 193.3515 0014104 349.5693 010.5267 15.41227809112740 STARS-Me Mother 1 43640U 98067PQ 20261.46048730 .00013907 00000-0 12749-3 0 9996 2 43640 051.6341 200.7366 0004195 042.5577 317.5744 15.68068326111157 CubeBel 1 1 43666U 18083E 20261.95499569 .00000663 00000-0 35471-4 0 9991 2 43666 097.4850 287.4889 0016034 043.5304 001.2156 15.18416471104658 Changshagaoxin 1 43669U 18083H 20261.73743398 .00000583 00000-0 32498-4 0 9999 2 43669 97.4730 285.1850 0011834 40.4500 319.7611 15.17414742104525 Ten-Koh 1 43677U 18084G 20261.87649333 .00000191 00000-0 25535-4 0 9997 2 43677 097.8924 018.7673 0015338 209.1519 150.8844 14.90315713102701 PO-101 1 43678U 18084H 20261.84545706 .00000442 00000-0 49676-4 0 9995 2 43678 97.8934 20.2980 0008689 225.8635 134.1869 14.91654781102790 IRVINE 01 1 43693U 18088D 20261.80324613 .00001987 00000-0 81978-4 0 9990 2 43693 085.0384 015.8594 0015873 316.0844 043.9136 15.23241274102906 QO-100 1 43700U 18090A 20261.80119832 .00000130 00000-0 00000-0 0 9999 2 43700 000.0142 152.5406 0001851 048.2232 110.6500 01.00272425006633 Reaktor Hello World 1 43743U 18096AA 20261.73015522 .00001037 00000-0 41047-4 0 9992 2 43743 097.4149 335.1174 0018481 157.1216 203.0850 15.27598995100487 MinXSS-2 1 43758U 18099A 20261.78737715 -.00000074 00000-0 -14585-5 0 9991 2 43758 97.6996 332.1926 0014438 237.9619 122.0200 14.95725450 97755 AO-95 1 43770U 18099N 20261.47101757 .00000524 00000-0 53037-4 0 9994 2 43770 097.6990 331.2171 0013223 247.0985 112.8841 14.95039463097664 RANGE-B 1 43772U 18099Q 20261.74688196 .00000787 00000-0 76630-4 0 9998 2 43772 097.7061 332.1051 0012997 231.7176 128.2877 14.95245840097705 RANGE-A 1 43773U 18099R 20261.79808864 .00000304 00000-0 33025-4 0 9996 2 43773 097.6929 331.1069 0012420 231.7330 128.2774 14.95003988097700 MOVE-II 1 43780U 18099Y 20261.26006180 .00000265 00000-0 29126-4 0 9990 2 43780 097.6994 331.2848 0012287 244.8370 115.1577 14.95477319097637 SNUSat 2 1 43782U 18099AA 20261.75054785 .00000613 00000-0 60793-4 0 9992 2 43782 97.6987 331.7363 0011523 230.5661 129.4541 14.95304488 97719 SnugLite 1 43784U 18099AC 20261.77963485 -.00000210 00000-0 -13736-4 0 9992 2 43784 097.6952 331.5654 0013854 240.4949 119.4891 14.95407153097734 ITASat 1 1 43786U 18099AE 20261.78187612 -.00000241 00000-0 -16577-4 0 9995 2 43786 097.7006 332.0080 0013957 239.6439 120.3403 14.95372231097732 EAGLET 1 1 43790U 18099AJ 20261.75046224 .00000683 00000-0 66376-4 0 9990 2 43790 97.6996 332.2725 0012094 243.3796 116.6186 14.95753523 97442 ESEO 1 43792U 18099AL 20261.76819500 -.00000157 00000-0 -89676-5 0 9995 2 43792 097.6971 332.0665 0011909 240.7829 119.2201 14.95623633097502 CSIM 1 43793U 18099AM 20261.78314861 -.00000063 00000-0 -49869-6 0 9995 2 43793 97.6968 332.1280 0011910 236.6874 123.3207 14.96132635 97497 Astrocast 0.1 1 43798U 18099AS 20261.73018871 .00000128 00000-0 16560-4 0 9997 2 43798 097.6989 332.3707 0011594 221.3604 138.6740 14.95903690097746 JO-97 1 43803U 18099AX 20261.65138822 -.00000131 00000-0 -66449-5 0 9992 2 43803 097.6965 331.6774 0013948 240.2358 119.7476 14.95558357097713 Suomi 100 1 43804U 18099AY 20261.78679847 -.00000083 00000-0 -22588-5 0 9996 2 43804 097.6961 331.7947 0014025 239.8472 120.1360 14.95544445097745 Al Farabi 2 1 43805U 18099AZ 20261.82012793 .00000729 00000-0 70614-4 0 9990 2 43805 097.6975 331.9384 0013865 238.9086 121.0775 14.95680284097753 PWSat 2 1 43814U 18099BJ 20261.77133669 .00026756 00000-0 13569-2 0 9992 2 43814 097.7948 344.6895 0010497 199.7777 160.3049 15.16870956097695 CHOMPTT 1 43855U 18104G 20261.61711817 .00000772 00000-0 30790-4 0 9991 2 43855 085.0346 114.2371 0019738 074.4225 285.9194 15.23108736097554 ISAT 1 43879U 18111D 20261.78467476 -.00000224 00000-0 -14724-4 0 9995 2 43879 097.6941 167.6966 0011937 300.1423 059.8615 14.96301197094282 UWE-4 1 43880U 18111E 20261.54929814 .00000532 00000-0 51839-4 0 9998 2 43880 097.6949 167.7837 0010942 301.6415 058.3738 14.96544520094269 Sparrow 1 43881U 18111F 20261.79642463 -.00000114 00000-0 -49340-5 0 9991 2 43881 097.6956 168.1127 0011372 298.6192 061.3885 14.96587465094307 Lume 1 1 43908U 18111AJ 20261.75688888 .00000772 00000-0 33377-4 0 9998 2 43908 097.2547 158.9313 0021224 172.1654 187.9920 15.25199571096092 FO-98 1 43933U 19003B 20261.88344820 .00000510 00000-0 25063-4 0 9999 2 43933 097.2213 308.0412 0016038 276.9275 083.0137 15.22228206092599 FO-99 1 43937U 19003F 20261.77977559 .00000877 00000-0 38220-4 0 9997 2 43937 097.2176 309.4506 0022168 257.1688 102.7073 15.24579731092705 Delphini 1 1 44030U 98067PW 20261.81947771 .00021332 00000-0 17998-3 0 9994 2 44030 051.6331 204.6281 0004840 085.1348 275.0202 15.69732382093006 MYSat 1 1 44045U 18092F 20261.59118852 .00001500 00000-0 51302-4 0 9998 2 44045 051.6395 314.7740 0010792 299.7366 060.2543 15.37098600089450 AstroCast 0.2 1 44083U 19018F 20261.74786147 .00000650 00000-0 31740-4 0 9993 2 44083 97.4126 321.4788 0012487 201.8662 158.2043 15.21719578 81413 AISTechSat 3 1 44103U 19018AB 20261.86568821 .00000675 00000-0 31377-4 0 9999 2 44103 97.3996 321.8215 0012263 217.2023 243.4668 15.23295968 81507 AISat 1 1 44104U 19018AC 20261.77668850 .00000624 00000-0 22469-4 0 9999 2 44104 097.4567 332.0012 0056436 244.2756 115.2653 15.31194183081938 Raavana-1 1 44329U 98067QE 20261.64540179 .00010555 00000-0 13598-3 0 9994 2 44329 051.6380 231.4238 0005560 001.6439 358.4572 15.59630042071387 Uguisu 1 44330U 98067QF 20261.34313932 .00009873 00000-0 12817-3 0 9992 2 44330 051.6355 233.1289 0005531 000.2156 359.8838 15.59516134071313 NepaliSat-1 1 44331U 98067QG 20261.38055982 .00009687 00000-0 12531-3 0 9991 2 44331 51.6357 232.6311 0005614 3.2602 356.8427 15.59636493 71331 Prox-1 1 44339U 19036A 20261.63833602 .00000903 00000-0 16421-3 0 9993 2 44339 023.9993 251.7881 0011775 080.5737 279.6085 14.53112124065555 Oculus-ASR 1 44348U 19036K 20261.87718084 .00005683 00000-0 79571-4 0 9991 2 44348 028.5166 136.4613 0360880 214.8097 142.8384 15.04111058067721 Armadillo 1 44352U 19036P 20260.97665762 .00008755 00000-0 12333-3 0 9995 2 44352 28.5321 135.4721 0345894 215.4229 142.2925 15.07536012 67606 NO-104 1 44354U 19036R 20261.34684810 .00005971 00000-0 82329-4 0 9994 2 44354 028.5310 136.4105 0357457 213.5632 144.1829 15.05196167067669 NO-103 1 44355U 19036S 20261.31430875 .00010381 00000-0 13712-3 0 9992 2 44355 028.5311 122.4375 0330314 236.3173 120.5508 15.12118817067814 CP9 1 44360U 19036X 20260.90271097 .00017649 -62686-5 17785-3 0 9993 2 44360 028.5138 103.3891 0305162 268.3929 088.1694 15.21120359067847 Move-IIb 1 44398U 19038N 20261.84788153 .00001007 00000-0 61190-4 0 9993 2 44398 097.5452 221.9548 0025323 165.4903 194.7060 15.12504012066545 SONATE 1 44400U 19038Q 20261.84135367 .00000414 00000-0 27740-4 0 9994 2 44400 097.5495 221.9549 0025528 164.5200 195.6817 15.12035195066534 BeeSat 9 1 44412U 19038AC 20261.83326199 .00000665 00000-0 41864-4 0 9992 2 44412 097.5478 222.0651 0022817 169.2243 190.9481 15.12429114066231 JAISAT-1 1 44419U 19038F 20261.89018329 .00000621 00000-0 38816-4 0 9993 2 44419 097.5480 222.4557 0021713 167.8146 192.3615 15.12913150066570 LightSail-2 1 44420U 19036AC 20261.63942254 .00005309 00000-0 11201-2 0 9993 2 44420 24.0072 244.9754 0022373 82.7578 277.5456 14.56467923 63765 Taurus 1 1 44530U 19059C 20261.86148021 .00000897 00000-0 26608-3 0 9990 2 44530 098.5657 343.8287 0013904 240.9775 119.0014 14.45645200053694 MO-106 1 44830U 19084G 20261.88372476 .00171777 13370-4 42234-3 0 9993 2 44830 096.9555 132.7086 0013412 224.8739 135.1455 15.95915976045092 TRSI-Sat 1 44831U 19084H 20261.10827195 .00164930 12255-4 44211-3 0 9993 2 44831 96.9528 131.8483 0013545 226.2682 133.7474 15.94301524 44972 MO-105 1 44832U 19084J 20261.76456279 .00407907 78057-4 60317-3 0 9998 2 44832 96.9527 133.1874 0012330 220.4324 139.6042 16.04813796 45115 Duchifat 3 1 44854U 19089C 20261.41202107 .00000287 00000-0 29597-4 0 9993 2 44854 36.9662 274.8762 0007403 82.3558 277.8087 14.99125853 42103 OPS-SAT 1 44878U 19092F 20261.53945309 .00000720 00000-0 41280-4 0 9999 2 44878 97.4713 83.2704 0015166 42.3130 317.9270 15.15631956 41488 TO-108 1 44881U 19093C 20261.92889706 -.00000037 00000-0 21027-5 0 9995 2 44881 097.9525 337.3267 0016453 095.9777 264.3301 14.81418824040383 FloripaSat 1 1 44885U 19093G 20261.88725258 .00000175 00000-0 28780-4 0 9999 2 44885 097.9529 337.5201 0016122 106.3545 253.9429 14.82076195040392 RS-44 1 44909U 19096E 20261.61410767 .00000041 00000-0 11882-3 0 9992 2 44909 082.5183 294.0809 0217552 011.3522 349.2373 12.79708158033974 SwampSat-2 1 45115U 19071E 20261.52757721 .00009570 00000-0 27135-3 0 9993 2 45115 51.6397 276.0103 0012974 31.6331 328.5430 15.36845838 35271 HO-107 1 45119U 19071J 20261.46755356 .00001328 00000-0 51371-4 0 9995 2 45119 51.6432 278.5689 0012536 27.6956 332.4692 15.33846800 35241 Phoenix 1 45258U 98067RB 20261.82987510 .00004029 00000-0 74407-4 0 9996 2 45258 051.6402 247.6516 0005745 332.7880 027.2808 15.51577690032814 AztechSat-1 1 45261U 98067RE 20261.84455964 .00007974 00000-0 13191-3 0 9999 2 45261 051.6398 246.2595 0007626 350.8405 009.2445 15.53175628032867 QARMAN 1 45263U 98067RG 20261.40944019 .00006269 00000-0 10865-3 0 9998 2 45263 051.6397 249.3503 0007096 345.4068 014.6716 15.52295714032811 Quetzal 1 1 45598U 98067RL 20261.34256892 .00005603 00000-0 10125-3 0 9997 2 45598 051.6409 251.1544 0003816 066.9959 293.1432 15.51347847022050 BY70-2 1 45857U 20042B 20261.90504136 .00000599 00000-0 93797-4 0 9998 2 45857 098.0090 334.2912 0011313 020.2095 339.9558 14.76302322011338 UPMSat 2 1 46276U 20061E 20261.86308174 .00000367 00000-0 22469-4 0 9995 2 46276 097.4635 334.7089 0001184 149.8073 210.3229 15.16041930002237 AmicalSat 1 46287U 20061R 20261.59119824 .00000242 00000-0 18752-4 0 9991 2 46287 097.5187 334.4550 0001869 349.4509 010.6681 15.09940251002165 /EX